Regional Weather Roundup
Issued by NWS

Home | Current Version | Previous Version | Text Only | Print | Product List | Glossary Off
Versions: 1 2 3 4 5 6 7 8 9 10 11 12 13 14 15 16 17 18 19 20 21 22 23 24 25 26 27 28

000
ASUS45 KPSR 161910
RWRAZ

ARIZONA HOURLY REGIONAL WEATHER ROUNDUP
NATIONAL WEATHER SERVICE PHOENIX AZ
1200 PM MST TUE JAN 16 2018

NOTE: FAIR INDICATES FEW OR NO CLOUDS BELOW 12,000 FEET WITH NO
SIGNIFICANT WEATHER AND/OR OBSTRUCTIONS TO VISIBILITY.

AZZ001>003-036-162000-
NORTHWEST ARIZONA

CITY           SKY/WX    TMP DP  RH WIND       PRES   REMARKS
BULLHEAD CITY  PTSUNNY   64  39  39 CALM      30.18F
KINGMAN        MOSUNNY   62  28  27 N3        30.21F
$$

AZZ004>008-015-016-018-162000-
NORTH CENTRAL ARIZONA

CITY           SKY/WX    TMP DP  RH WIND       PRES   REMARKS
GRAND CANYON   MOSUNNY   46  20  35 E10       30.32F
WILLIAMS       SUNNY     52  19  28 VRB3      30.28F
PRESCOTT       SUNNY     55  26  32 NE5       30.27F
FLAGSTAFF      SUNNY     45  23  42 E7        30.33F
PAYSON         SUNNY     54  23  30 S7G14     30.28F
PAGE           SUNNY     47  19  33 E5        30.37F
$$

AZZ009>014-017-162000-
NORTHEAST ARIZONA

CITY           SKY/WX    TMP DP  RH WIND       PRES   REMARKS
WINSLOW        SUNNY     47  23  38 VRB3      30.35F
SAINT JOHNS    MOSUNNY   44  23  43 CALM      30.33F
SHOW LOW       SUNNY     45  25  45 NW5       30.34F
$$

AZZ540-542>544-546-548-162000-
GREATER PHOENIX AREA

CITY           SKY/WX    TMP DP  RH WIND       PRES   REMARKS
PHOENIX        MOSUNNY   70  32  24 S8        30.15F
BUCKEYE        SUNNY     68  32  26 E14       30.16F
GLENDALE       MOSUNNY   70  34  26 E9        30.18F
LUKE AFB         N/A     69  32  26 SE6       30.14F
DEER VALLEY    SUNNY     69  30  23 SE7       30.15F
SCOTTSDALE     SUNNY     70  31  23 SE9       30.17F
MESA-FALCON    PTSUNNY   70  25  18 NE14      30.17
MESA-GATEWAY   MOSUNNY   66  28  24 SE6       30.19F
CHANDLER       PTSUNNY   68  30  24 E7        30.17F
$$

AZZ539-553-162000-
SOUTHWEST MARICOPA COUNTY AND PINAL COUNTY

CITY           SKY/WX    TMP DP  RH WIND       PRES   REMARKS
CASA GRANDE    NOT AVBL
GILA BEND      PTSUNNY   70  26  18 E17       30.13F
$$

AZZ503-504-507>509-162000-
SOUTHEAST ARIZONA

CITY           SKY/WX    TMP DP  RH WIND       PRES   REMARKS
TUCSON         SUNNY     66  23  19 E16       30.20F
DAVIS-MONTHAN  SUNNY     67  24  19 E9        30.18F
RYAN FIELD     SUNNY     64  19  17 MISG      30.19F
NOGALES        SUNNY     69  20  15 VRB3      30.19F
SIERRA VISTA   MOSUNNY   55  20  26 NE9       30.28F
DOUGLAS        PTSUNNY   51  22  31 E14       30.30F
SAFFORD        SUNNY     49  19  30 S17G23    30.39F
$$

AZZ532-162000-
SOUTHWEST ARIZONA

CITY           SKY/WX    TMP DP  RH WIND       PRES   REMARKS
YUMA           NOT AVBL
$$

CAZ041-043-047-048-061-525>527-560>570-162000-
SOUTHERN CALIFORNIA

CITY           SKY/WX    TMP DP  RH WIND       PRES   REMARKS
DOWNTOWN L.A.  MOSUNNY   65  47  52 CALM      30.15F
L.A. AIRPORT   PTSUNNY   65  58  78 SW5       30.16F HAZE
SAN DIEGO      PTSUNNY   65  56  72 NW9       30.17R
BURBANK        MOSUNNY   65  44  46 CALM      30.16F
ONTARIO        CLOUDY    65  39  38 CALM      30.16R
RIVERSIDE      PTSUNNY   63  46  54 W3        30.16S
PALM SPRINGS   CLOUDY    69  43  38 NE5       30.14F
IMPERIAL       MOSUNNY   71  37  28 CALM      30.12F
BLYTHE         PTSUNNY   66  38  35 CALM      30.15F
NEEDLES        CLOUDY    66  38  35 NE9       30.18F
$$

NVZ020-UTZ003-162000-
SOUTHERN NEVADA-UTAH

CITY           SKY/WX    TMP DP  RH WIND       PRES   REMARKS
LAS VEGAS      CLOUDY    59  34  39 N6        30.24R
SALT LAKE CITY MOSUNNY   46  25  43 N7        30.32F
$$

NMZ009-TXZ055-162000-
NEW MEXICO-WEST TEXAS

CITY           SKY/WX    TMP DP  RH WIND       PRES   REMARKS
ALBUQUERQUE    CLOUDY    30  16  56 W3        30.48F
EL PASO        CLOUDY    35   7  31 SE14      30.50F WCI  26
$$


........................KEY........................
SKY/WX - SKY CONDITION/WEATHER
TMP    - TEMPERATURE IN FAHRENHEIT
DP     - DEW POINT IN FAHRENHEIT
RH     - RELATIVE HUMIDITY IN PERCENT
WIND   - DIRECTION AND SPEED IN MILES PER HOUR (MPH)
VRB    - VARIABLE WIND DIRECTION
PRES   - MEAN SEA LEVEL PRESSURE IN INCHES OF MERCURY
         F - FALLING PRESSURE   R - RISING PRESSURE
         S - STEADY PRESSURE
VSB    - VISIBILITY IN MILES
HX     - HEAT INDEX IN FAHRENHEIT
WCI    - WIND CHILL INDEX IN FAHRENHEIT
TC     - TEMPERATURE IN CELSIUS WHICH IS ALSO KNOWN AS
         TEMPERATURE IN CENTIGRADE
AFB    - AIR FORCE BASE
         LUKE AFB IS LUKE AIR FORCE BASE
         DAVIS-MONTHAN IS DAVIS-MONTHAN AIR FORCE BASE
NAS    - NAVAL AIR STATION
         EL CENTRO NAS IS EL CENTRO NAVAL AIR STATION
N/A    - NOT AVAILABLE





USA.gov is the U.S. government's official web portal to all federal, state and local government web resources and services.